Vorticity
18 6 5 9 2 2 -1 2 4 4 4 9 1 5 11 15 10 6 5 9 7 6 5 9 8 0 1 8 3 2 6 18 13 9 7 6 6 5 7 13 7 6 8 8
0 8 6 3 5 3 10 3 7 9 12 1 4 8 14 15 10 12 8 7 9 7 6 7 8 5 1 9 9 4 6 19 19 14 8 8 8 5 5 9 8 8 3 9
7 -17 38 8 6 8 6 6 4 -3 -6 8 6 9 29 11 11 13 12 10 8 10 7 7 6 6 8 6 9 5 6 16 17 7 10 10 11 4 3 5 9 7 -2 6
6 12 -3 20 4 5 -0 12 11 7 6 3 -10 -1 3 7 5 7 11 10 10 10 9 7 5 7 1 2 8 3 5 12 19 13 14 12 12 8 7 6 9 6 3 5
5 18 10 5 7 15 12 -7 4 8 9 5 6 5 2 5 12 13 8 12 8 13 12 9 7 4 10 -3 5 11 7 8 14 19 10 8 10 9 8 7 5 3 1 2
8 11 9 17 11 3 10 3 14 9 9 18 10 6 6 42 1 17 11 30 12 13 17 13 8 9 7 1 3 10 10 9 9 8 12 10 7 6 5 7 10 12 -7 -0
11 12 -7 4 7 22 10 10 14 13 22 -0 19 15 7 -8 -3 3 6 11 8 13 17 18 12 7 6 2 3 5 14 7 7 7 14 16 11 8 4 7 5 10 4 3
3 32 15 12 8 -6 24 5 -24 6 9 3 23 1 10 10 4 0 8 8 10 5 17 19 18 9 7 1 3 9 9 12 8 8 7 9 10 4 7 7 8 2 -3 2
29 7 4 19 7 15 8 1 12 2 8 21 -2 -2 6 18 2 18 32 22 5 11 13 16 22 13 7 2 2 3 11 10 10 11 12 8 7 8 8 5 3 2 7 8
2 5 1 17 20 15 12 6 6 12 12 4 4 -3 2 14 7 13 13 9 8 8 14 23 22 15 9 7 3 4 4 12 11 11 10 11 8 7 7 6 5 6 7 9
7 -15 13 10 6 7 4 17 13 0 7 -2 13 33 -13 -2 10 -2 12 7 10 8 11 28 22 16 10 10 0 2 4 11 7 9 10 10 10 9 10 9 8 6 7 8
10 -5 15 1 -8 9 7 4 7 14 17 9 4 11 -11 -8 16 8 10 12 14 2 19 18 17 17 11 -2 4 -0 7 8 12 12 11 10 10 9 10 10 10 9 8 7
10 10 10 13 14 7 -2 5 7 8 9 4 1 18 9 14 -6 10 10 15 13 5 10 15 13 17 11 4 15 6 12 6 4 5 5 9 11 10 13 11 9 8 8 7
5 10 -6 -11 13 17 22 16 20 8 2 7 8 6 6 7 6 1 15 12 19 12 11 17 10 18 16 7 15 8 12 3 3 1 -3 -4 3 2 2 7 14 10 9 8
7 0 5 10 5 4 -6 12 -5 0 11 5 12 -0 9 -2 36 13 2 10 9 11 16 19 11 17 16 9 11 12 11 9 7 1 1 3 9 4 4 4 1 7 9 10
12 6 6 9 14 9 5 10 1 4 7 5 2 8 6 5 -1 -3 5 -2 15 17 21 16 11 12 20 6 9 6 6 9 8 6 8 2 6 2 5 4 5 2 0 -0
14 13 8 11 13 15 24 10 10 12 10 12 7 11 6 9 17 27 21 7 9 4 19 16 14 10 15 14 9 5 9 8 6 8 11 10 11 7 4 -1 8 9 7 5
5 2 12 9 2 29 16 10 7 12 4 15 22 27 3 10 0 -1 13 5 -1 3 9 22 15 8 8 15 17 16 12 7 10 3 8 10 6 12 6 8 8 3 7 10
8 6 11 2 5 -1 0 7 21 7 24 10 13 26 18 -3 14 6 8 -0 10 6 7 13 19 10 8 11 10 13 18 18 12 10 11 18 5 4 5 4 6 3 -1 6
18 11 6 1 -4 -12 9 18 -1 -2 33 2 13 10 27 17 13 12 25 6 9 9 8 20 14 17 12 14 12 11 13 15 16 9 9 13 25 15 11 8 9 2 21 10
27 16 9 12 13 9 9 2 -18 20 28 -0 25 12 5 6 13 -11 8 12 1 13 4 11 9 15 7 7 12 9 7 14 13 8 5 12 19 22 27 13 -19 -4 23 11
5 -1 4 21 16 22 23 20 26 12 15 3 10 11 10 7 22 15 22 4 10 14 5 2 10 1 18 14 15 11 9 7 5 9 12 16 18 19 15 28 22 14 13 11
18 20 6 -4 6 2 -5 26 19 -7 10 -0 4 2 8 13 17 9 17 23 35 4 18 14 7 -3 16 16 9 11 7 1 7 12 13 16 13 28 12 17 12 -14 21 4
11 22 6 2 26 2 9 -5 9 1 16 4 5 4 6 4 1 -2 10 14 4 33 15 12 5 5 8 25 13 6 4 4 12 13 12 21 52 34 16 16 20 0 7 -8
6 8 1 25 15 -2 -1 -16 6 9 24 6 2 2 6 -1 16 11 -0 3 -2 17 13 15 8 13 24 20 10 5 3 9 7 11 8 19 -4 51 37 55 36 34 21 -1
15 12 12 8 8 7 16 -5 13 1 1 3 27 -3 8 14 12 11 15 11 10 -3 7 12 21 18 19 13 6 5 5 8 7 10 9 0 7 5 21 14 39 14 -8 12
Height
3177 3180 3179 3180 3181 3180 3180 3181 3181 3181 3181 3181 3179 3177 3176 3176 3175 3176 3178 3178 3178 3179 3180 3179 3178 3178 3178 3179 3180 3181 3181 3181 3183 3187 3190 3194 3197 3200 3204 3206 3208 3212 3214 3216
3179 3175 3177 3178 3178 3179 3179 3180 3179 3179 3179 3180 3177 3175 3172 3172 3174 3174 3175 3176 3177 3178 3179 3178 3177 3178 3176 3177 3178 3180 3179 3180 3181 3184 3188 3192 3196 3199 3202 3204 3208 3210 3213 3216
3173 3173 3173 3175 3176 3177 3177 3177 3176 3177 3177 3177 3174 3171 3167 3169 3171 3172 3172 3173 3175 3176 3177 3176 3175 3176 3176 3175 3177 3178 3179 3178 3178 3182 3186 3190 3192 3197 3201 3204 3207 3209 3212 3215
3170 3171 3172 3172 3172 3175 3173 3174 3175 3175 3177 3173 3172 3168 3167 3166 3167 3168 3169 3170 3172 3173 3174 3175 3174 3174 3175 3174 3175 3176 3177 3178 3179 3181 3184 3188 3192 3196 3201 3203 3206 3209 3211 3213
3167 3167 3168 3168 3170 3171 3171 3172 3172 3173 3173 3172 3169 3167 3161 3161 3163 3165 3164 3166 3168 3170 3171 3172 3172 3172 3174 3173 3173 3175 3176 3177 3179 3181 3182 3186 3191 3195 3198 3201 3204 3207 3209 3211
3164 3164 3165 3165 3167 3168 3169 3170 3170 3170 3169 3165 3161 3161 3156 3155 3159 3161 3163 3163 3164 3166 3168 3169 3170 3171 3171 3172 3171 3173 3174 3176 3179 3181 3183 3185 3189 3193 3196 3200 3202 3205 3207 3209
3160 3160 3161 3162 3163 3164 3166 3167 3164 3162 3158 3154 3151 3153 3152 3154 3157 3159 3160 3161 3162 3162 3164 3165 3166 3167 3168 3170 3169 3171 3173 3175 3177 3180 3182 3184 3187 3190 3194 3197 3200 3203 3207 3209
3153 3153 3153 3157 3159 3160 3161 3162 3157 3150 3144 3141 3145 3150 3151 3153 3155 3156 3156 3157 3159 3160 3160 3161 3162 3164 3164 3166 3167 3169 3171 3173 3175 3178 3181 3183 3186 3189 3191 3195 3198 3201 3204 3208
3148 3150 3150 3153 3155 3158 3158 3158 3159 3155 3151 3147 3143 3146 3148 3149 3151 3151 3150 3153 3155 3157 3158 3158 3158 3159 3160 3161 3165 3168 3169 3172 3174 3176 3179 3181 3184 3186 3189 3191 3194 3197 3200 3203
3149 3149 3148 3151 3152 3154 3154 3155 3154 3152 3150 3147 3141 3142 3143 3143 3149 3150 3150 3151 3153 3153 3153 3154 3154 3156 3157 3158 3162 3166 3168 3170 3173 3174 3176 3179 3181 3184 3187 3189 3191 3194 3196 3199
3148 3148 3146 3147 3148 3148 3150 3150 3150 3149 3145 3140 3138 3136 3139 3144 3147 3148 3148 3149 3150 3150 3150 3148 3150 3152 3154 3155 3159 3163 3166 3168 3170 3172 3174 3176 3179 3181 3183 3185 3188 3190 3192 3194
3144 3143 3142 3142 3142 3144 3144 3143 3143 3144 3146 3144 3142 3138 3138 3142 3145 3146 3146 3146 3146 3146 3146 3145 3146 3148 3150 3152 3156 3160 3163 3166 3168 3170 3172 3174 3177 3179 3180 3182 3185 3187 3189 3191
3141 3139 3139 3137 3138 3136 3137 3140 3140 3138 3137 3135 3136 3134 3137 3139 3141 3143 3143 3143 3143 3143 3142 3141 3142 3143 3146 3149 3152 3156 3160 3163 3166 3168 3170 3172 3174 3177 3179 3181 3183 3184 3186 3187
3136 3135 3134 3130 3129 3129 3133 3134 3136 3136 3133 3132 3132 3133 3135 3137 3138 3140 3140 3139 3140 3138 3138 3138 3139 3140 3144 3146 3150 3153 3157 3161 3164 3166 3168 3170 3173 3175 3177 3179 3180 3181 3183 3184
3134 3132 3132 3130 3129 3128 3129 3131 3132 3132 3132 3132 3131 3129 3131 3133 3134 3136 3136 3137 3137 3135 3134 3135 3136 3137 3140 3143 3147 3151 3154 3158 3161 3162 3165 3168 3171 3173 3174 3176 3177 3178 3179 3181
3128 3127 3128 3124 3125 3125 3124 3127 3127 3128 3129 3130 3131 3129 3132 3131 3132 3133 3134 3135 3134 3134 3131 3132 3133 3134 3137 3140 3144 3148 3150 3153 3157 3159 3162 3164 3166 3168 3170 3172 3174 3176 3177 3178
3123 3123 3122 3117 3122 3120 3117 3122 3122 3122 3123 3124 3123 3126 3128 3129 3130 3130 3130 3129 3130 3129 3130 3129 3130 3132 3134 3137 3140 3143 3147 3150 3152 3155 3158 3159 3162 3164 3166 3168 3169 3171 3173 3173
3119 3119 3118 3116 3117 3108 3112 3115 3116 3115 3116 3117 3118 3120 3123 3124 3124 3124 3122 3123 3123 3124 3125 3125 3127 3129 3131 3133 3136 3140 3142 3145 3148 3151 3152 3154 3156 3158 3160 3162 3164 3166 3168 3168
3113 3113 3112 3111 3108 3105 3107 3110 3111 3110 3110 3114 3115 3115 3115 3117 3116 3120 3116 3118 3118 3119 3121 3122 3123 3126 3128 3130 3132 3135 3137 3140 3143 3146 3148 3149 3150 3152 3154 3156 3157 3159 3162 3163
3104 3106 3107 3106 3102 3096 3102 3105 3103 3105 3102 3109 3110 3110 3111 3111 3114 3117 3111 3112 3113 3114 3116 3118 3119 3121 3124 3126 3128 3131 3133 3135 3138 3140 3142 3143 3144 3144 3147 3149 3151 3152 3154 3155
3097 3098 3096 3095 3094 3092 3099 3101 3102 3102 3105 3099 3100 3103 3105 3108 3107 3104 3106 3106 3108 3109 3112 3114 3115 3117 3120 3122 3124 3127 3129 3131 3134 3135 3136 3138 3137 3137 3139 3141 3143 3144 3147 3148
3092 3094 3093 3092 3091 3087 3094 3094 3095 3097 3093 3095 3096 3099 3100 3099 3100 3100 3099 3102 3102 3104 3106 3109 3110 3113 3115 3118 3120 3122 3125 3127 3129 3130 3130 3129 3129 3130 3130 3133 3135 3138 3140 3143
3087 3088 3086 3087 3087 3082 3085 3087 3085 3088 3088 3090 3092 3094 3094 3094 3094 3094 3095 3096 3097 3099 3100 3102 3104 3107 3110 3113 3115 3118 3120 3122 3123 3123 3123 3122 3121 3121 3120 3123 3127 3131 3134 3136
3081 3081 3080 3080 3079 3083 3080 3081 3082 3083 3083 3085 3084 3086 3088 3089 3089 3089 3090 3091 3092 3093 3095 3096 3099 3102 3105 3109 3111 3113 3115 3117 3117 3117 3116 3114 3111 3110 3112 3114 3117 3121 3126 3130
3078 3077 3076 3072 3073 3073 3075 3077 3074 3075 3075 3076 3078 3079 3081 3082 3083 3083 3084 3086 3088 3088 3089 3091 3093 3096 3100 3104 3107 3109 3110 3111 3112 3112 3112 3109 3108 3106 3104 3104 3109 3115 3118 3125
3072 3071 3070 3066 3070 3068 3067 3066 3066 3066 3069 3070 3072 3072 3073 3074 3076 3077 3078 3079 3082 3084 3085 3086 3087 3090 3094 3097 3101 3104 3105 3106 3107 3108 3108 3107 3107 3108 3110 3110 3108 3114 3116 3120